Location: Be Robert
(6.8233°N, 10.9122°W)
Time: 02:42:44
(UTC+00:00)

Daily predictions for brighter satellites

Satellite Brightness Start Highest point End
(mag) Time Altitude Azimuth Time Altitude Azimuth Time Altitude Azimuth
H-2A R/B 3.6 04:22:03 24° E 04:22:03 24° E 04:25:51 10° ENE
SL-16 R/B 3.1 04:24:50 40° NE 04:25:40 42° ENE 04:30:59 10° SE
USA 234 4.1 04:20:26 10° NE 04:26:41 48° SE 04:32:56 10° SSW
Ariane H10 4.4 04:29:10 72° WNW 04:30:01 86° N 05:02:45 10° E
Ariane H10 4.5 04:29:10 72° WNW 04:30:02 86° N 05:02:45 10° E
Delta 2 Rocket 4.0 04:35:26 67° SSW 04:36:14 77° SSE 04:42:20 10° ENE
GPS 2-17 Rocket1 4.0 04:40:16 42° SE 04:40:16 42° SE 04:43:59 10° E
Haruka 4.5 04:38:53 20° S 04:40:16 24° SSE 04:43:05 10° E
ADEOS 4.2 04:40:51 10° NNE 04:45:55 53° ESE 04:50:59 10° S
CZ-3 R/B 3.9 04:31:55 34° NW 04:48:56 70° NNE 04:58:42 10° ESE
ADEOS Rocket 3.2 04:44:28 10° SSE 04:50:07 66° ENE 04:54:40 19° N
Ariane H10 4.3 04:51:00 27° SSE 04:51:00 27° SSE 04:52:42 10° ESE
Ariane H10 3.0 04:50:51 36° SSE 04:50:51 36° SSE 04:53:42 10° ESE
Okean 3 Rocket 3.8 04:49:03 10° S 04:53:23 67° E 04:54:30 46° NNE
Cosmos 1633 4.2 04:50:18 10° S 04:52:08 28° SSE 04:52:08 28° SSE
TSX-5 4.5 04:49:02 10° SSW 04:53:56 82° WNW 05:00:22 10° NNE
Cosmos 1709 Rocket 3.9 04:48:26 10° S 04:54:45 89° W 05:01:07 10° N
Meteor 2-3 Rocket 3.8 04:56:42 10° S 05:02:20 80° E 05:08:02 10° N
Hubble Space Telescope 2.2 05:04:56 26° SSW 05:04:56 26° SSW 05:08:08 10° SSE
Ariane V96 H10-3 3.3 05:06:23 58° WNW 05:07:12 81° N 05:19:56 10° E
GPS 2-14 Rocket1 3.8 05:09:08 33° SSW 05:09:24 34° SSW 05:13:11 10° SE
Cosmos 2221 4.4 05:12:17 16° SW 05:12:17 16° SW 05:13:26 10° SSW
Sylda 5 4.0 05:07:10 31° WSW 05:10:26 69° S 05:52:00 10° E
FENGYUN 3A 3.5 05:05:30 10° N 05:10:49 67° WNW 05:16:09 10° SSW
Cosmos 389 Rocket 2.7 05:12:11 40° NNE 05:13:16 67° E 05:16:47 10° SSE
Cosmos 1484 Rocket 3.0 05:16:36 46° WSW 05:16:36 46° WSW 05:19:40 10° SSW
Cosmos 1606 3.3 05:14:17 15° N 05:17:12 55° E 05:20:53 10° SSE
Cosmos 773 Rocket 4.2 05:14:56 13° N 05:19:36 70° ENE 05:24:45 10° SSE
USA 276 3.8 05:18:41 23° NNE 05:19:38 27° NE 05:22:21 10° ESE
CZ-4C R/B 2.7 05:16:52 10° S 05:20:03 67° WSW 05:20:03 67° WSW
Centaur AC-64 4.3 05:22:09 15° N 05:22:27 15° N 05:25:28 10° NE
USA 215 4.1 05:16:48 10° S 05:22:29 32° SW 05:24:57 25° W
Cosmos 990 Rocket 4.1 05:18:21 10° SSW 05:23:23 50° WNW 05:28:25 10° N
CZ-4B R/B 4.1 05:24:56 10° ESE 05:27:11 18° ENE 05:29:23 10° NNE
CZ-4B R/B 3.6 05:24:49 10° NNE 05:29:03 57° ESE 05:33:05 10° S
H-2A R/B 1.9 05:28:30 10° S 05:32:43 71° WSW 05:36:15 14° NNW
FALCON 9 R/B 4.0 05:14:09 10° SW 05:36:22 44° SSE 05:41:13 10° E
Cosmos 2184 Rocket 4.2 05:36:05 10° S 05:42:19 77° E 05:48:36 10° N
deb Chang Zheng 4 3.9 05:38:40 10° N 05:42:44 41° WNW 05:46:50 10° SSW
ALOS 3.2 05:40:46 17° NW 05:43:02 24° WNW 05:46:48 10° SW
Meteor 2-17 Rocket 4.5 05:40:05 10° SSW 05:45:59 56° W 05:51:52 10° N
ERS-2 3.6 05:42:46 10° SE 05:46:09 37° ENE 05:49:31 10° N
SL-8 R/B 3.7 05:44:54 16° NW 05:48:47 90° WSW 05:53:36 10° SE
Cosmos 1844 Rocket 3.3 05:43:48 10° SW 05:48:47 33° WNW 05:53:49 10° N
Delta 7925 Rocket 3.5 05:47:45 16° W 05:51:18 48° NNW 05:56:12 10° NE
SWIFT 4.4 05:49:13 10° WSW 05:52:02 17° SSW 05:54:50 10° SSE
Meteor 1-31 Rocket 3.7 05:49:10 10° NNW 05:52:17 24° WNW 05:55:24 10° SW
ATLAS 2A CENTAUR R/B 2.3 05:51:46 10° WSW 05:54:35 85° SSE 06:03:50 10° ENE
KM-V1 3.7 05:54:31 23° WNW 05:55:04 27° NNW 05:56:55 10° NNE
COSMOS 2455 2.9 05:51:00 10° SSW 05:56:51 54° WNW 06:02:43 10° N
Cosmos 1933 3.3 05:56:42 10° NNW 06:00:44 64° W 06:04:45 10° S
CRYOSAT 2 4.3 05:55:55 10° S 06:00:46 85° W 06:05:37 10° N
CENTAUR R/B 3.8 05:53:44 10° NNW 06:02:29 65° ENE 06:10:58 10° SSE
Cosmos 1844 4.3 05:57:54 10° SW 06:02:45 31° WNW 06:07:36 10° NNW
Cosmos 1500 Rocket 3.4 05:58:33 10° S 06:02:51 72° W 06:07:08 10° N
Cosmos 1151 Rocket 3.0 05:59:00 10° N 06:03:18 85° W 06:07:36 10° S
Cosmos 1782 4.0 05:59:33 10° N 06:03:26 47° E 06:07:18 10° SSE
Cosmos 372 Rocket 3.9 06:01:28 10° SSW 06:06:33 73° WNW 06:11:37 10° N
USA 234 4.1 06:04:08 10° N 06:09:22 26° NW 06:14:38 10° WSW
SL-16 R/B 3.9 06:06:55 10° WNW 06:09:25 13° WSW 06:11:55 10° SW
Spelda 3.7 06:12:07 10° WSW 06:15:01 44° S 06:17:11 10° ESE
Maqsat-B 3.9 06:11:07 10° W 06:15:17 90° WSW 06:31:58 10° E
ATLAS 5 CENTAUR R/B 1.8 06:16:45 10° SW 06:20:28 37° WNW 06:24:06 10° N
Cosmos 1538 Rocket 4.5 06:17:24 10° NNW 06:22:18 41° WSW 06:27:10 10° S
ARIANE 5 R/B 4.0 06:29:26 10° WSW 06:48:57 52° S 06:52:36 10° ESE
